Regional Weather Roundup
Issued by NWS Newport/Morehead, NC

Current Version | Previous Version | Text Only | Print | Product List | Glossary Off
Versions: 1 2 3 4 5 6 7 8 9 10 11 12 13 14 15 16 17 18 19 20 21 22 23 24 25 26 27 28 29 30 31 32 33 34 35 36 37 38 39 40 41 42 43 44 45 46 47 48 49 50

000
ASUS42 KMHX 121822
RWRMHX
WEATHER ROUNDUP FOR EASTERN NORTH CAROLINA
NATIONAL WEATHER SERVICE NEWPORT/MOREHEAD CITY NC
200 PM EDT SAT JUL 12 2014

NOTE: "FAIR" INDICATES FEW OR NO CLOUDS BELOW 12,000 FEET
WITH NO SIGNIFICANT WEATHER AND/OR OBSTRUCTIONS TO VISIBILITY

NCZ015>017-031-032-045>047-102-103-121900-
NORTH COAST

CITY           SKY/WX    TMP DP  RH WIND       PRES   REMARKS
EDENTON        MOSUNNY   82  72  71 SE10      30.21S
ELIZABETH CITY SUNNY     82  70  66 E7        30.21F
KITTY HAWK     PTCLDY    79  70  72 NE6       30.20F
MANTEO         NOT AVBL

$$

NCZ045>047-081-094-103-104-121900-
CENTRAL COAST

CITY           SKY/WX    TMP DP  RH WIND       PRES   REMARKS
FRISCO         MOSUNNY   83  69  62 N7        30.21S
SWANQUARTER      N/A     86 N/A N/A S10       30.18S

$$

NCZ095-097-098-100-101-121900-
SOUTHERN COAST

CITY           SKY/WX    TMP DP  RH WIND       PRES   REMARKS
BEAUFORT       PTSUNNY   85  74  69 SE9       30.20S
CEDAR ISLAND     N/A     81 N/A N/A NE6       30.24F
JACKSONVILLE   MOSUNNY   85  74  69 SE12      30.19F
NEWPORT        NOT AVBL
PINEY ISLAND   CLEAR     82  73  74 NE8       30.21S
WILMINGTON     CLOUDY    84  71  65 SE7       30.20S


$$

NCZ011>013-027>030-043-044-078>080-089-090>093-098-121900-
COASTAL PLAIN

CITY           SKY/WX    TMP DP  RH WIND       PRES   REMARKS
AHOSKIE        SUNNY     83  66  56 S6        30.21F
CLINTON        MOSUNNY   86  73  64 CALM      30.20F
ELIZABETHTOWN  SUNNY     87  69  54 CALM      30.19F
GOLDSBORO      NOT AVBL
GREENVILLE     MOSUNNY   86  68  54 NE6       30.21F HAZE
HAVELOCK       PTSUNNY   85  69  58 E7        30.21F
KENANSVILLE    SUNNY     85  67  56 CALM      30.20F
KINSTON        SUNNY     86  68  54 CALM      30.20F
NEW BERN       MOSUNNY   87  69  54 NE5       30.21S
RICHLANDS      CLOUDY    88  70  55 E7        30.19F
ROANOKE RAPIDS NOT AVBL
ROCKY MOUNT    PTSUNNY   87  69  54 VRB6      30.20F
WASHINGTON     SUNNY     84  68  57 NE3       30.20F
WHITEVILLE     MOSUNNY   87  69  54 SW3       30.19S

$$

AMZ130-135-150-152-154-156-158-170-250-252-270-ANZ085-086-088-633-658-670-121900-
MARINE OBSERVATIONS

STATION/POSITION TIME  TEMP    WIND        PRES    WAVE   SWELL
                       AIR SEA DIR/SP/G            HT/PER HT/PER
                 (UTC) (F)     (DEG/KT/KT) (MB)    (FT/S) (FT/S)
CHESAPEAKE LIGHT NOT AVBL
BUOY 44014       1800   75 77   80/  8/ 12 1022.8    2/ 9   2/ 9
DUCK             1800   76 75   60/  6/  7 1022.5
2E DUCK          1800                        N/A     1/ 9
OREGON INLET     1800   77 76   50/  5/  8 1023.1
BUOY 44095       1800      75                N/A     2/ 7
HATTERAS CG      1800   79 81   20/  8/ 10 1023.5
DIAMOND BUOY     1700          VRB 10/ 12  1023.0    2/ 8   2/ 8
17S OCRACOKE INL NOT AVBL
CAPE LOOKOUT     1800   79      80/  7/  7 1022.9
BEAUFORT LAB     1800   80 82  160/  7/ 10 1022.3
30 SE NEW RIVER  1800   79 84  100/  4/  4 1023.3    2/ 6   2/ 6
5 SE WRIGHTSVILL 1800   77 83  170/  8/ 10 1023.5
FRYING PAN BUOY  NOT AVBL
BUOY 41001       NOT AVBL
BUOY 41002       1703   80 84  180/  4/  6 1023.3    2/ 7   2/ 7
BUOY 41004       1800   76 82  160/  6/  8 1022.6    2/ 9   2/ 9

$$


USA.gov is the U.S. government's official web portal to all federal, state and local government web resources and services.